Regional Weather Roundup
Issued by NWS Cleveland, OH

Home | Current Version | Previous Version | Graphics & Text | Print | Product List | Glossary On
Versions: 1 2 3 4 5 6 7 8 9 10 11 12 13 14 15 16 17 18 19 20 21 22 23 24 25 26 27 28 29 30 31 32 33 34 35 36 37 38 39 40 41 42 43 44 45 46 47 48 49 50
000
ASUS41 KCLE 230802
RWRCLE
OHIO REGIONAL WEATHER ROUNDUP
NATIONAL WEATHER SERVICE CLEVELAND, OH
400 AM EDT WED JUL 23 2014

NOTE: "FAIR" INDICATES FEW OR NO CLOUDS BELOW 12,000 FEET WITH NO
SIGNIFICANT WEATHER AND/OR OBSTRUCTIONS TO VISIBILITY.

OHZ001>008-015>018-024>027-034-035-043-044-230900-
   NORTHWEST OHIO

CITY           SKY/WX    TMP DP  RH WIND       PRES   REMARKS
DEFIANCE       CLOUDY    74  70  87 SW12      29.97R FOG
FINDLAY        TSTM      74  70  87 W16G24    29.98R FOG
TOLEDO EXPRESS CLOUDY    73  71  93 SW13      29.96R FOG
TOLEDO EXEC    LGT RAIN  73  69  87 SW5       29.97R
LIMA           LGT RAIN  76  68  76 W10       30.01R
$$

OHZ009>014-019>023-028>033-038-089-230900-
   NORTHEAST OHIO

CITY           SKY/WX    TMP DP  RH WIND       PRES   REMARKS
CLE-HOPKINS    CLOUDY    76  66  71 SW10      29.97R
CLE-LAKEFRONT  CLOUDY    79  66  64 SW10      29.93R
CUY CO. ARPT   NOT AVBL
LORAIN-ELYRIA  CLOUDY    76  67  73 SW6       29.96S
ASHTABULA      MOCLDY    72  68  87 S6        29.96F
AKRON-CANTON   PTCLDY    74  68  81 W5        29.98F
WOOSTER        CLEAR     69  66  90 CALM      29.99F FOG
MANSFIELD      PTCLDY    73  67  81 SW6       29.99F
YOUNGSTOWN     PTCLDY    73  69  87 SW6       29.97F
$$

OHZ042-051>053-060>062-070>072-077>081-230900-
  SOUTHWEST OHIO

CITY           SKY/WX    TMP DP  RH WIND       PRES   REMARKS
CINC-COVINGTON PTCLDY    74  69  85 SW5       30.02F
CINC-LUNKEN    PTCLDY    70  69  97 CALM      30.00F
HAMILTON       CLEAR     70  68  93 CALM      30.01F FOG
DAYTON         PTCLDY    73  67  81 SW8       30.01F
WRIGHT-PAT AFB CLEAR     69  67  92 SW5       30.00F
DAYTON GENERAL CLEAR     71  68  90 CALM      30.00F
WILMINGTON     CLEAR     68  66  93 S3        30.00F
$$

OHZ036-037-039>041-045>050-054>059-063>069-073>076-082>088-230900-
  CENTRAL AND SOUTHEAST OHIO

CITY           SKY/WX    TMP DP  RH WIND       PRES   REMARKS
COLUMBUS       CLEAR     77  68  73 CALM      29.98F
OSU AIRPORT    CLEAR     72  66  81 SW5       29.98F
BOLTON FIELD   CLEAR     69  67  93 SW3       29.99F
RICKENBACK AFB CLEAR     71  66  84 SW3       29.98F HAZE
NEWARK         CLEAR     68  67  96 SW3       29.98F FOG
MARION         CLOUDY    74  66  76 SW6       29.98F
LANCASTER      MOCLDY    72  69  90 CALM      29.99F
ZANESVILLE     MOCLDY    72  69  90 S5        29.98F
NEW PHILLY     CLOUDY    71  70  96 CALM      29.98F FOG
$$



USA.gov is the U.S. government's official web portal to all federal, state and local government web resources and services.